Time,TemperatureF,DewpointF,PressureIn,WindDirection,WindDirectionDegrees,WindSpeedMPH,WindSpeedGustMPH,Humidity,HourlyPrecipIn,Conditions,Clouds,dailyrainin,SoftwareType,DateUTC
2013-09-17 00:01:00,47.7,44.9,30.31,SSE,164,0.0,2.0,90,0.00,,CLR,0.01,VWS V13.01,2013-09-17 04:01:00,
2013-09-17 00:02:00,47.7,44.9,30.32,SSE,164,0.0,0.0,90,0.00,,CLR,0.00,VWS V13.01,2013-09-17 04:02:00,
2013-09-17 00:03:00,47.7,44.9,30.32,SSE,164,0.0,1.0,90,0.00,,CLR,0.00,VWS V13.01,2013-09-17 04:03:00,
2013-09-17 00:08:00,47.6,44.8,30.32,SSE,164,0.0,1.0,90,0.00,,CLR,0.00,VWS V13.01,2013-09-17 04:08:00,
2013-09-17 00:13:00,47.5,44.7,30.31,SSE,164,0.0,1.0,90,0.00,,CLR,0.00,VWS V13.01,2013-09-17 04:13:00,
2013-09-17 00:18:00,47.5,44.4,30.32,SSE,164,0.0,1.0,89,0.00,,CLR,0.00,VWS V13.01,2013-09-17 04:18:00,
2013-09-17 00:23:00,47.5,44.4,30.32,SSE,164,0.0,1.0,89,0.00,,CLR,0.00,VWS V13.01,2013-09-17 04:23:00,
2013-09-17 00:28:00,47.5,44.4,30.32,SSE,150,0.0,3.0,89,0.00,,CLR,0.00,VWS V13.01,2013-09-17 04:28:00,
2013-09-17 00:33:00,47.5,44.4,30.32,SSE,155,0.0,1.0,89,0.00,,CLR,0.00,VWS V13.01,2013-09-17 04:33:00,
2013-09-17 00:38:00,47.4,44.0,30.32,SSE,155,0.0,1.0,88,0.00,,CLR,0.00,VWS V13.01,2013-09-17 04:38:00,
2013-09-17 00:43:00,47.3,43.9,30.32,SSE,156,0.0,3.0,88,0.00,,CLR,0.00,VWS V13.01,2013-09-17 04:43:00,
2013-09-17 00:48:00,47.2,43.8,30.32,SSE,156,0.0,3.0,88,0.00,,CLR,0.00,VWS V13.01,2013-09-17 04:48:00,
2013-09-17 00:53:00,47.1,43.7,30.32,SSE,164,0.0,3.0,88,0.00,,CLR,0.00,VWS V13.01,2013-09-17 04:53:00,
2013-09-17 00:58:00,46.9,43.5,30.32,SSE,164,0.0,3.0,88,0.00,,CLR,0.00,VWS V13.01,2013-09-17 04:58:00,
2013-09-17 01:03:00,46.9,43.5,30.32,SSE,155,0.0,0.0,88,0.00,,CLR,0.00,VWS V13.01,2013-09-17 05:03:00,
2013-09-17 01:08:00,46.8,43.4,30.32,SSE,155,0.0,1.0,88,0.00,,CLR,0.00,VWS V13.01,2013-09-17 05:08:00,
2013-09-17 01:13:00,46.7,43.3,30.32,SSE,155,0.0,1.0,88,0.00,,CLR,0.00,VWS V13.01,2013-09-17 05:13:00,
2013-09-17 01:18:00,46.7,43.0,30.32,SE,133,0.0,2.0,87,0.00,,CLR,0.00,VWS V13.01,2013-09-17 05:18:00,
2013-09-17 01:23:00,46.7,43.0,30.32,SE,140,0.0,2.0,87,0.00,,CLR,0.00,VWS V13.01,2013-09-17 05:23:00,
2013-09-17 01:28:00,46.8,43.1,30.33,SE,143,0.0,2.0,87,0.00,,CLR,0.00,VWS V13.01,2013-09-17 05:28:00,
2013-09-17 01:33:00,46.9,42.9,30.33,SE,143,0.0,0.0,86,0.00,,CLR,0.00,VWS V13.01,2013-09-17 05:33:00,
2013-09-17 01:38:00,47.0,43.0,30.33,SE,143,0.0,1.0,86,0.00,,CLR,0.00,VWS V13.01,2013-09-17 05:38:00,
2013-09-17 01:43:00,47.0,42.7,30.33,SE,146,0.0,2.0,85,0.00,,CLR,0.00,VWS V13.01,2013-09-17 05:43:00,
2013-09-17 01:48:00,47.1,42.8,30.33,SE,146,1.0,2.0,85,0.00,,CLR,0.00,VWS V13.01,2013-09-17 05:48:00,
2013-09-17 01:53:00,47.0,42.4,30.33,SSE,150,0.0,2.0,84,0.00,,CLR,0.00,VWS V13.01,2013-09-17 05:53:00,
2013-09-17 01:58:00,47.0,42.7,30.34,SSE,155,0.0,2.0,85,0.00,,CLR,0.00,VWS V13.01,2013-09-17 05:58:00,
2013-09-17 02:03:00,46.9,42.6,30.34,SSE,155,0.0,1.0,85,0.00,,CLR,0.00,VWS V13.01,2013-09-17 06:03:00,
2013-09-17 02:08:00,46.7,42.4,30.34,SSE,155,0.0,1.0,85,0.00,,CLR,0.00,VWS V13.01,2013-09-17 06:08:00,
2013-09-17 02:13:00,46.7,42.4,30.34,SSE,155,0.0,1.0,85,0.00,,CLR,0.00,VWS V13.01,2013-09-17 06:13:00,
2013-09-17 02:18:00,46.6,42.3,30.34,SSE,155,0.0,1.0,85,0.00,,CLR,0.00,VWS V13.01,2013-09-17 06:18:00,
2013-09-17 02:23:00,46.6,42.3,30.34,South,175,0.0,4.0,85,0.00,,CLR,0.00,VWS V13.01,2013-09-17 06:23:00,
2013-09-17 02:28:00,46.5,42.5,30.35,South,172,2.0,4.0,86,0.00,,CLR,0.00,VWS V13.01,2013-09-17 06:28:00,
2013-09-17 02:34:00,46.3,42.3,30.35,SE,146,1.0,1.0,86,0.00,,CLR,0.00,VWS V13.01,2013-09-17 06:34:00,
2013-09-17 02:39:00,46.0,42.3,30.35,SE,146,0.0,1.0,87,0.00,,CLR,0.00,VWS V13.01,2013-09-17 06:39:00,
2013-09-17 02:44:00,46.0,42.3,30.35,SE,138,0.0,5.0,87,0.00,,CLR,0.00,VWS V13.01,2013-09-17 06:44:00,
2013-09-17 02:49:00,45.9,42.3,30.35,SE,138,0.0,5.0,87,0.00,,CLR,0.00,VWS V13.01,2013-09-17 06:49:00,
2013-09-17 02:54:00,45.8,42.2,30.35,SE,138,0.0,5.0,87,0.00,,CLR,0.00,VWS V13.01,2013-09-17 06:54:00,
2013-09-17 02:59:00,45.7,42.1,30.35,SE,138,0.0,5.0,87,0.00,,CLR,0.00,VWS V13.01,2013-09-17 06:59:00,
2013-09-17 03:04:00,45.6,42.3,30.35,SE,138,0.0,0.0,88,0.00,,CLR,0.00,VWS V13.01,2013-09-17 07:04:00,
2013-09-17 03:09:00,45.5,42.2,30.35,SE,138,0.0,1.0,88,0.00,,CLR,0.00,VWS V13.01,2013-09-17 07:09:00,
2013-09-17 03:14:00,45.4,42.1,30.35,SSE,164,0.0,4.0,88,0.00,,CLR,0.00,VWS V13.01,2013-09-17 07:14:00,
2013-09-17 03:19:00,45.4,42.1,30.35,SSE,164,0.0,4.0,88,0.00,,CLR,0.00,VWS V13.01,2013-09-17 07:19:00,
2013-09-17 03:24:00,45.4,42.1,30.35,SSE,164,0.0,4.0,88,0.00,,CLR,0.00,VWS V13.01,2013-09-17 07:24:00,
2013-09-17 03:29:00,45.5,41.9,30.35,SSE,152,0.0,4.0,87,0.00,,CLR,0.00,VWS V13.01,2013-09-17 07:29:00,
2013-09-17 03:34:00,45.5,41.9,30.35,SSE,152,1.0,1.0,87,0.00,,CLR,0.00,VWS V13.01,2013-09-17 07:34:00,
2013-09-17 03:39:00,45.6,42.0,30.35,SSE,152,0.0,1.0,87,0.00,,CLR,0.00,VWS V13.01,2013-09-17 07:39:00,
2013-09-17 03:44:00,45.6,42.0,30.35,SSE,156,0.0,1.0,87,0.00,,CLR,0.00,VWS V13.01,2013-09-17 07:44:00,
2013-09-17 03:49:00,45.6,42.0,30.35,SSE,154,0.0,2.0,87,0.00,,CLR,0.00,VWS V13.01,2013-09-17 07:49:00,
2013-09-17 03:54:00,45.6,42.0,30.35,ESE,112,0.0,2.0,87,0.00,,CLR,0.00,VWS V13.01,2013-09-17 07:54:00,
2013-09-17 03:59:00,45.6,42.0,30.35,SE,136,0.0,2.0,87,0.00,,CLR,0.00,VWS V13.01,2013-09-17 07:59:00,
2013-09-17 04:04:00,45.5,41.9,30.35,SE,135,0.0,0.0,87,0.00,,CLR,0.00,VWS V13.01,2013-09-17 08:04:00,
2013-09-17 04:09:00,45.4,41.8,30.35,SE,135,0.0,1.0,87,0.00,,CLR,0.00,VWS V13.01,2013-09-17 08:09:00,
2013-09-17 04:14:00,45.3,41.7,30.36,NNE,14,0.0,2.0,87,0.00,,CLR,0.00,VWS V13.01,2013-09-17 08:14:00,
2013-09-17 04:19:00,45.2,41.9,30.36,NNE,14,0.0,2.0,88,0.00,,CLR,0.00,VWS V13.01,2013-09-17 08:19:00,
2013-09-17 04:24:00,45.1,41.8,30.36,NNE,14,0.0,2.0,88,0.00,,CLR,0.00,VWS V13.01,2013-09-17 08:24:00,
2013-09-17 04:29:00,45.0,41.4,30.36,NNE,14,0.0,2.0,87,0.00,,CLR,0.00,VWS V13.01,2013-09-17 08:29:00,
2013-09-17 04:34:00,44.9,41.6,30.37,NNE,14,0.0,0.0,88,0.00,,CLR,0.00,VWS V13.01,2013-09-17 08:34:00,
2013-09-17 04:39:00,44.6,41.3,30.37,NNE,14,0.0,0.0,88,0.00,,CLR,0.00,VWS V13.01,2013-09-17 08:39:00,
2013-09-17 04:44:00,44.2,40.9,30.37,NNE,14,0.0,0.0,88,0.00,,CLR,0.00,VWS V13.01,2013-09-17 08:44:00,
2013-09-17 04:49:00,43.8,40.8,30.37,NNE,14,0.0,0.0,89,0.00,,CLR,0.00,VWS V13.01,2013-09-17 08:49:00,
2013-09-17 04:54:00,43.5,40.5,30.37,NNE,14,0.0,0.0,89,0.00,,CLR,0.00,VWS V13.01,2013-09-17 08:54:00,
2013-09-17 04:59:00,43.2,40.2,30.37,NNE,14,0.0,0.0,89,0.00,,CLR,0.00,VWS V13.01,2013-09-17 08:59:00,
2013-09-17 05:04:00,43.0,40.3,30.38,NNE,14,0.0,0.0,90,0.00,,CLR,0.00,VWS V13.01,2013-09-17 09:04:00,
2013-09-17 05:09:00,42.7,40.0,30.37,NNE,14,0.0,0.0,90,0.00,,CLR,0.00,VWS V13.01,2013-09-17 09:09:00,
2013-09-17 05:14:00,42.4,39.7,30.37,NNE,14,0.0,0.0,90,0.00,,CLR,0.00,VWS V13.01,2013-09-17 09:14:00,
2013-09-17 05:19:00,42.2,39.8,30.37,NNE,14,0.0,0.0,91,0.00,,CLR,0.00,VWS V13.01,2013-09-17 09:19:00,
2013-09-17 05:24:00,41.9,39.5,30.37,NNE,14,0.0,0.0,91,0.00,,CLR,0.00,VWS V13.01,2013-09-17 09:24:00,
2013-09-17 05:29:00,41.7,39.3,30.37,NNE,14,0.0,0.0,91,0.00,,CLR,0.00,VWS V13.01,2013-09-17 09:29:00,
2013-09-17 05:34:00,41.5,39.1,30.37,NNE,14,0.0,0.0,91,0.00,,CLR,0.00,VWS V13.01,2013-09-17 09:34:00,
2013-09-17 05:39:00,41.3,38.9,30.38,NNE,14,0.0,0.0,91,0.00,,CLR,0.00,VWS V13.01,2013-09-17 09:39:00,
2013-09-17 05:44:00,41.1,39.0,30.38,NNE,14,0.0,0.0,92,0.00,,CLR,0.00,VWS V13.01,2013-09-17 09:44:00,
2013-09-17 05:49:00,41.0,38.9,30.38,NNE,14,0.0,0.0,92,0.00,,CLR,0.00,VWS V13.01,2013-09-17 09:49:00,
2013-09-17 05:54:00,40.8,38.7,30.38,NNE,14,0.0,0.0,92,0.00,,CLR,0.00,VWS V13.01,2013-09-17 09:54:00,
2013-09-17 05:59:00,40.7,38.6,30.38,NNE,14,0.0,0.0,92,0.00,,CLR,0.00,VWS V13.01,2013-09-17 09:59:00,
2013-09-17 06:04:00,40.7,38.8,30.39,NNE,14,0.0,0.0,93,0.00,,CLR,0.00,VWS V13.01,2013-09-17 10:04:00,
2013-09-17 06:10:00,40.8,38.9,30.39,NNE,14,0.0,0.0,93,0.00,,CLR,0.00,VWS V13.01,2013-09-17 10:10:00,
2013-09-17 06:15:00,40.8,38.9,30.39,NNE,14,0.0,0.0,93,0.00,,CLR,0.00,VWS V13.01,2013-09-17 10:15:00,
2013-09-17 06:20:00,40.8,38.9,30.39,NNE,14,0.0,0.0,93,0.00,,CLR,0.00,VWS V13.01,2013-09-17 10:20:00,
2013-09-17 06:25:00,40.9,39.0,30.39,NNE,14,0.0,0.0,93,0.00,,CLR,0.00,VWS V13.01,2013-09-17 10:25:00,
2013-09-17 06:30:00,40.9,39.0,30.39,NNE,14,0.0,0.0,93,0.00,,CLR,0.00,VWS V13.01,2013-09-17 10:30:00,
2013-09-17 06:35:00,40.8,38.9,30.39,NNE,14,0.0,0.0,93,0.00,,CLR,0.00,VWS V13.01,2013-09-17 10:35:00,
2013-09-17 06:40:00,40.7,39.1,30.40,NNE,14,0.0,0.0,94,0.00,,CLR,0.00,VWS V13.01,2013-09-17 10:40:00,
2013-09-17 06:45:00,40.6,39.0,30.40,NNE,14,0.0,0.0,94,0.00,,CLR,0.00,VWS V13.01,2013-09-17 10:45:00,
2013-09-17 06:50:00,40.5,38.9,30.40,NNE,14,0.0,0.0,94,0.00,,CLR,0.00,VWS V13.01,2013-09-17 10:50:00,
2013-09-17 06:55:00,40.4,38.8,30.40,NNE,14,0.0,0.0,94,0.00,,CLR,0.00,VWS V13.01,2013-09-17 10:55:00,
2013-09-17 07:00:00,40.4,38.8,30.41,NNE,14,0.0,0.0,94,0.00,,CLR,0.00,VWS V13.01,2013-09-17 11:00:00,
2013-09-17 07:05:00,40.2,38.6,30.41,NNE,14,0.0,0.0,94,0.00,,CLR,0.00,VWS V13.01,2013-09-17 11:05:00,
2013-09-17 07:10:00,40.1,38.5,30.41,NNE,14,0.0,0.0,94,0.00,,CLR,0.00,VWS V13.01,2013-09-17 11:10:00,
2013-09-17 07:15:00,40.0,38.4,30.41,NNE,14,0.0,0.0,94,0.00,,CLR,0.00,VWS V13.01,2013-09-17 11:15:00,
2013-09-17 07:20:00,40.0,38.4,30.41,NNE,14,0.0,0.0,94,0.00,,CLR,0.00,VWS V13.01,2013-09-17 11:20:00,
2013-09-17 07:25:00,40.0,38.4,30.41,NNE,14,0.0,0.0,94,0.00,,CLR,0.00,VWS V13.01,2013-09-17 11:25:00,
2013-09-17 07:30:00,39.9,38.3,30.41,NNE,14,0.0,0.0,94,0.00,,CLR,0.00,VWS V13.01,2013-09-17 11:30:00,
2013-09-17 07:35:00,39.9,38.3,30.41,NNE,14,0.0,0.0,94,0.00,,CLR,0.00,VWS V13.01,2013-09-17 11:35:00,
2013-09-17 07:40:00,40.0,38.4,30.41,NNE,14,0.0,1.0,94,0.00,,CLR,0.00,VWS V13.01,2013-09-17 11:40:00,
2013-09-17 07:45:00,40.2,38.6,30.41,NNE,14,0.0,1.0,94,0.00,,CLR,0.00,VWS V13.01,2013-09-17 11:45:00,
2013-09-17 07:50:00,40.4,39.1,30.41,SSE,149,0.0,2.0,95,0.00,,CLR,0.00,VWS V13.01,2013-09-17 11:50:00,
2013-09-17 07:55:00,40.7,39.4,30.41,SSE,149,0.0,2.0,95,0.00,,CLR,0.00,VWS V13.01,2013-09-17 11:55:00,
2013-09-17 08:00:00,41.2,39.9,30.41,South,170,0.0,2.0,95,0.00,,CLR,0.00,VWS V13.01,2013-09-17 12:00:00,
2013-09-17 08:05:00,41.6,40.3,30.41,SSE,158,0.0,2.0,95,0.00,,CLR,0.00,VWS V13.01,2013-09-17 12:05:00,
2013-09-17 08:10:00,42.1,40.8,30.41,SSE,158,1.0,2.0,95,0.00,,CLR,0.00,VWS V13.01,2013-09-17 12:10:00,
2013-09-17 08:15:00,42.6,41.3,30.41,South,171,0.0,2.0,95,0.00,,CLR,0.00,VWS V13.01,2013-09-17 12:15:00,
2013-09-17 08:20:00,43.1,41.8,30.41,SE,134,0.0,3.0,95,0.00,,CLR,0.00,VWS V13.01,2013-09-17 12:20:00,
2013-09-17 08:25:00,43.5,41.9,30.41,SE,138,0.0,3.0,94,0.00,,CLR,0.00,VWS V13.01,2013-09-17 12:25:00,
2013-09-17 08:31:00,44.1,42.5,30.41,SSE,148,0.0,3.0,94,0.00,,CLR,0.00,VWS V13.01,2013-09-17 12:31:00,
2013-09-17 08:36:00,44.5,42.6,30.41,SSE,148,0.0,1.0,93,0.00,,CLR,0.00,VWS V13.01,2013-09-17 12:36:00,
2013-09-17 08:41:00,45.0,43.1,30.41,SSE,148,0.0,2.0,93,0.00,,CLR,0.00,VWS V13.01,2013-09-17 12:41:00,
2013-09-17 08:46:00,45.5,43.3,30.41,SSE,148,0.0,2.0,92,0.00,,CLR,0.00,VWS V13.01,2013-09-17 12:46:00,
2013-09-17 08:51:00,46.0,43.5,30.41,SSE,148,0.0,2.0,91,0.00,,CLR,0.00,VWS V13.01,2013-09-17 12:51:00,
2013-09-17 08:56:00,46.3,43.5,30.41,SSE,148,0.0,2.0,90,0.00,,CLR,0.00,VWS V13.01,2013-09-17 12:56:00,
2013-09-17 09:01:00,46.7,43.9,30.41,SSE,148,0.0,0.0,90,0.00,,CLR,0.00,VWS V13.01,2013-09-17 13:01:00,
2013-09-17 09:06:00,47.0,43.9,30.41,East,88,0.0,1.0,89,0.00,,CLR,0.00,VWS V13.01,2013-09-17 13:06:00,
2013-09-17 09:11:00,47.4,44.0,30.41,ESE,120,0.0,1.0,88,0.00,,CLR,0.00,VWS V13.01,2013-09-17 13:11:00,
2013-09-17 09:16:00,47.8,44.1,30.41,ESE,123,0.0,1.0,87,0.00,,CLR,0.00,VWS V13.01,2013-09-17 13:16:00,
2013-09-17 09:21:00,48.1,44.1,30.41,SE,146,2.0,4.0,86,0.00,,CLR,0.00,VWS V13.01,2013-09-17 13:21:00,
2013-09-17 09:26:00,48.7,44.1,30.41,SSE,161,0.0,4.0,84,0.00,,CLR,0.00,VWS V13.01,2013-09-17 13:26:00,
2013-09-17 09:31:00,49.2,44.6,30.41,SE,139,2.0,2.0,84,0.00,,CLR,0.00,VWS V13.01,2013-09-17 13:31:00,
2013-09-17 09:36:00,49.5,44.6,30.41,SE,137,1.0,3.0,83,0.00,,CLR,0.00,VWS V13.01,2013-09-17 13:36:00,
2013-09-17 09:41:00,49.8,44.5,30.41,SE,134,1.0,3.0,82,0.00,,CLR,0.00,VWS V13.01,2013-09-17 13:41:00,
2013-09-17 09:46:00,50.1,44.8,30.41,SE,146,2.0,3.0,82,0.00,,CLR,0.00,VWS V13.01,2013-09-17 13:46:00,
2013-09-17 09:51:00,50.5,44.6,30.41,South,179,0.0,3.0,80,0.00,,CLR,0.00,VWS V13.01,2013-09-17 13:51:00,
2013-09-17 09:56:00,50.8,44.5,30.41,NE,38,0.0,5.0,79,0.00,,CLR,0.00,VWS V13.01,2013-09-17 13:56:00,
2013-09-17 10:01:00,51.2,44.9,30.41,NE,43,0.0,1.0,79,0.00,,CLR,0.00,VWS V13.01,2013-09-17 14:01:00,
2013-09-17 10:06:00,51.5,44.9,30.41,NE,36,0.0,4.0,78,0.00,,CLR,0.00,VWS V13.01,2013-09-17 14:06:00,
2013-09-17 10:11:00,52.0,45.4,30.41,SSE,155,1.0,4.0,78,0.00,,CLR,0.00,VWS V13.01,2013-09-17 14:11:00,
2013-09-17 10:16:00,53.0,46.0,30.41,SE,128,0.0,4.0,77,0.00,,CLR,0.00,VWS V13.01,2013-09-17 14:16:00,
2013-09-17 10:21:00,53.5,46.1,30.40,ESE,122,0.0,4.0,76,0.00,,CLR,0.00,VWS V13.01,2013-09-17 14:21:00,
2013-09-17 10:26:00,54.1,46.7,30.40,ENE,62,1.0,4.0,76,0.00,,CLR,0.00,VWS V13.01,2013-09-17 14:26:00,
2013-09-17 10:31:00,54.4,46.7,30.40,NE,53,1.0,3.0,75,0.00,,CLR,0.00,VWS V13.01,2013-09-17 14:31:00,
2013-09-17 10:36:00,54.9,46.8,30.40,ESE,105,0.0,5.0,74,0.00,,CLR,0.00,VWS V13.01,2013-09-17 14:36:00,
2013-09-17 10:41:00,55.4,46.9,30.40,NE,40,0.0,5.0,73,0.00,,CLR,0.00,VWS V13.01,2013-09-17 14:41:00,
2013-09-17 10:46:00,55.8,46.9,30.40,NNE,18,1.0,7.0,72,0.00,,CLR,0.00,VWS V13.01,2013-09-17 14:46:00,
2013-09-17 10:51:00,55.6,47.5,30.40,SSE,151,0.0,7.0,74,0.00,,CLR,0.00,VWS V13.01,2013-09-17 14:51:00,
2013-09-17 10:56:00,56.0,48.2,30.40,SE,127,0.0,7.0,75,0.00,,CLR,0.00,VWS V13.01,2013-09-17 14:56:00,
2013-09-17 11:01:00,56.7,47.8,30.40,NNE,26,2.0,3.0,72,0.00,,CLR,0.00,VWS V13.01,2013-09-17 15:01:00,
2013-09-17 11:06:00,57.0,48.4,30.39,SE,133,0.0,3.0,73,0.00,,CLR,0.00,VWS V13.01,2013-09-17 15:06:00,
2013-09-17 11:11:00,57.7,48.0,30.39,SE,141,0.0,3.0,70,0.00,,CLR,0.00,VWS V13.01,2013-09-17 15:11:00,
2013-09-17 11:16:00,57.9,48.2,30.39,SSE,154,0.0,4.0,70,0.00,,CLR,0.00,VWS V13.01,2013-09-17 15:16:00,
2013-09-17 11:21:00,58.1,48.0,30.39,SSE,161,0.0,4.0,69,0.00,,CLR,0.00,VWS V13.01,2013-09-17 15:21:00,
2013-09-17 11:26:00,58.6,48.9,30.38,SSE,161,0.0,4.0,70,0.00,,CLR,0.00,VWS V13.01,2013-09-17 15:26:00,
2013-09-17 11:32:00,59.0,48.5,30.38,NE,53,0.0,0.0,68,0.00,,CLR,0.00,VWS V13.01,2013-09-17 15:32:00,
2013-09-17 11:37:00,59.0,48.1,30.38,NE,40,0.0,6.0,67,0.00,,CLR,0.00,VWS V13.01,2013-09-17 15:37:00,
2013-09-17 11:42:00,59.0,48.1,30.38,SSE,165,0.0,6.0,67,0.00,,CLR,0.00,VWS V13.01,2013-09-17 15:42:00,
2013-09-17 11:47:00,59.0,47.3,30.38,NW,306,0.0,6.0,65,0.00,,CLR,0.00,VWS V13.01,2013-09-17 15:47:00,
2013-09-17 11:52:00,59.2,48.7,30.37,SSE,161,0.0,6.0,68,0.00,,CLR,0.00,VWS V13.01,2013-09-17 15:52:00,
2013-09-17 11:57:00,59.3,48.0,30.37,SE,136,0.0,6.0,66,0.00,,CLR,0.00,VWS V13.01,2013-09-17 15:57:00,
2013-09-17 12:02:00,59.3,48.0,30.37,SSE,149,0.0,1.0,66,0.00,,CLR,0.00,VWS V13.01,2013-09-17 16:02:00,
2013-09-17 12:07:00,59.1,47.0,30.37,NE,55,1.0,5.0,64,0.00,,CLR,0.00,VWS V13.01,2013-09-17 16:07:00,
2013-09-17 12:12:00,59.0,47.3,30.37,SE,133,1.0,5.0,65,0.00,,CLR,0.00,VWS V13.01,2013-09-17 16:12:00,
2013-09-17 12:17:00,59.0,47.7,30.37,SE,140,0.0,5.0,66,0.00,,CLR,0.00,VWS V13.01,2013-09-17 16:17:00,
2013-09-17 12:22:00,59.0,47.7,30.37,ENE,65,3.0,5.0,66,0.00,,CLR,0.00,VWS V13.01,2013-09-17 16:22:00,
2013-09-17 12:27:00,59.0,48.1,30.37,ENE,65,1.0,5.0,67,0.00,,CLR,0.00,VWS V13.01,2013-09-17 16:27:00,
2013-09-17 12:32:00,59.3,47.5,30.36,SSE,150,0.0,1.0,65,0.00,,CLR,0.00,VWS V13.01,2013-09-17 16:32:00,
2013-09-17 12:37:00,59.4,46.8,30.36,SE,134,1.0,3.0,63,0.00,,CLR,0.00,VWS V13.01,2013-09-17 16:37:00,
2013-09-17 12:42:00,59.8,47.6,30.36,NE,40,1.0,5.0,64,0.00,,CLR,0.00,VWS V13.01,2013-09-17 16:42:00,
2013-09-17 12:47:00,59.9,46.9,30.36,NE,40,0.0,5.0,62,0.00,,CLR,0.00,VWS V13.01,2013-09-17 16:47:00,
2013-09-17 12:52:00,59.9,47.7,30.35,ENE,64,1.0,6.0,64,0.00,,CLR,0.00,VWS V13.01,2013-09-17 16:52:00,
2013-09-17 12:57:00,60.0,47.4,30.36,ENE,65,1.0,6.0,63,0.00,,CLR,0.00,VWS V13.01,2013-09-17 16:57:00,
2013-09-17 13:02:00,60.0,47.4,30.35,NE,55,1.0,3.0,63,0.00,,CLR,0.00,VWS V13.01,2013-09-17 17:02:00,
2013-09-17 13:07:00,60.0,47.4,30.35,NE,55,0.0,3.0,63,0.00,,CLR,0.00,VWS V13.01,2013-09-17 17:07:00,
2013-09-17 13:12:00,60.1,47.9,30.35,NE,55,1.0,4.0,64,0.00,,CLR,0.00,VWS V13.01,2013-09-17 17:12:00,
2013-09-17 13:17:00,60.1,49.1,30.35,NE,54,0.0,4.0,67,0.00,,CLR,0.00,VWS V13.01,2013-09-17 17:17:00,
2013-09-17 13:22:00,60.2,50.0,30.34,North,351,1.0,6.0,69,0.00,,CLR,0.00,VWS V13.01,2013-09-17 17:22:00,
2013-09-17 13:27:00,60.2,50.0,30.34,East,89,2.0,9.0,69,0.00,,CLR,0.00,VWS V13.01,2013-09-17 17:27:00,
2013-09-17 13:33:00,60.2,50.0,30.34,NNW,333,0.0,5.0,69,0.00,,CLR,0.00,VWS V13.01,2013-09-17 17:33:00,
2013-09-17 13:38:00,60.0,49.8,30.34,West,269,5.0,5.0,69,0.00,,CLR,0.00,VWS V13.01,2013-09-17 17:38:00,
2013-09-17 13:43:00,59.9,50.1,30.33,NW,310,2.0,5.0,70,0.00,,CLR,0.00,VWS V13.01,2013-09-17 17:43:00,
2013-09-17 13:48:00,60.0,49.8,30.33,NNW,348,7.0,7.0,69,0.00,,CLR,0.00,VWS V13.01,2013-09-17 17:48:00,
2013-09-17 13:53:00,60.1,50.3,30.33,NNE,29,2.0,8.0,70,0.00,,CLR,0.00,VWS V13.01,2013-09-17 17:53:00,
2013-09-17 13:58:00,60.4,50.6,30.33,NE,53,1.0,8.0,70,0.00,,CLR,0.00,VWS V13.01,2013-09-17 17:58:00,
2013-09-17 14:03:00,60.5,49.9,30.33,NNE,13,0.0,3.0,68,0.00,,CLR,0.00,VWS V13.01,2013-09-17 18:03:00,
2013-09-17 14:08:00,60.3,50.1,30.32,East,79,1.0,8.0,69,0.00,,CLR,0.00,VWS V13.01,2013-09-17 18:08:00,
2013-09-17 14:13:00,60.2,50.0,30.32,ENE,70,3.0,9.0,69,0.00,,CLR,0.00,VWS V13.01,2013-09-17 18:13:00,
2013-09-17 14:18:00,60.2,50.8,30.32,NNE,15,0.0,9.0,71,0.00,,CLR,0.00,VWS V13.01,2013-09-17 18:18:00,
2013-09-17 14:23:00,60.3,50.5,30.32,NE,44,0.0,9.0,70,0.00,,CLR,0.00,VWS V13.01,2013-09-17 18:23:00,
2013-09-17 14:28:00,60.5,51.1,30.32,North,350,0.0,9.0,71,0.00,,CLR,0.00,VWS V13.01,2013-09-17 18:28:00,
2013-09-17 14:33:00,60.8,51.3,30.32,ENE,58,7.0,8.0,71,0.00,,CLR,0.00,VWS V13.01,2013-09-17 18:33:00,
2013-09-17 14:38:00,61.0,51.2,30.32,NW,322,2.0,8.0,70,0.00,,CLR,0.00,VWS V13.01,2013-09-17 18:38:00,
2013-09-17 14:43:00,61.1,51.6,30.31,ENE,70,1.0,8.0,71,0.00,,CLR,0.00,VWS V13.01,2013-09-17 18:43:00,
2013-09-17 14:48:00,61.1,52.0,30.31,NNW,347,1.0,8.0,72,0.00,,CLR,0.00,VWS V13.01,2013-09-17 18:48:00,
2013-09-17 14:53:00,61.2,51.3,30.31,NE,53,0.0,8.0,70,0.00,,CLR,0.00,VWS V13.01,2013-09-17 18:53:00,
2013-09-17 14:58:00,61.2,51.0,30.31,NE,51,1.0,8.0,69,0.00,,CLR,0.00,VWS V13.01,2013-09-17 18:58:00,
2013-09-17 15:03:00,61.3,51.5,30.30,NW,313,0.0,6.0,70,0.00,,CLR,0.00,VWS V13.01,2013-09-17 19:03:00,
2013-09-17 15:08:00,61.2,51.3,30.30,ESE,105,2.0,7.0,70,0.00,,CLR,0.00,VWS V13.01,2013-09-17 19:08:00,
2013-09-17 15:13:00,61.1,52.0,30.30,North,355,2.0,10.0,72,0.00,,CLR,0.00,VWS V13.01,2013-09-17 19:13:00,
2013-09-17 15:18:00,61.3,51.5,30.30,NE,49,4.0,10.0,70,0.00,,CLR,0.00,VWS V13.01,2013-09-17 19:18:00,
2013-09-17 15:23:00,61.5,51.2,30.29,ENE,66,3.0,10.0,69,0.00,,CLR,0.00,VWS V13.01,2013-09-17 19:23:00,
2013-09-17 15:28:00,61.6,51.3,30.29,ENE,63,1.0,10.0,69,0.00,,CLR,0.00,VWS V13.01,2013-09-17 19:28:00,
2013-09-17 15:33:00,61.7,51.4,30.29,ENE,61,2.0,4.0,69,0.00,,CLR,0.00,VWS V13.01,2013-09-17 19:33:00,
2013-09-17 15:38:00,61.9,51.6,30.29,ENE,64,4.0,7.0,69,0.00,,CLR,0.00,VWS V13.01,2013-09-17 19:38:00,
2013-09-17 15:43:00,62.2,51.9,30.28,NE,50,5.0,7.0,69,0.00,,CLR,0.00,VWS V13.01,2013-09-17 19:43:00,
2013-09-17 15:48:00,62.3,51.6,30.28,ENE,59,0.0,7.0,68,0.00,,CLR,0.00,VWS V13.01,2013-09-17 19:48:00,
2013-09-17 15:53:00,62.3,52.4,30.28,NW,323,0.0,7.0,70,0.00,,CLR,0.00,VWS V13.01,2013-09-17 19:53:00,
2013-09-17 15:58:00,62.4,51.3,30.28,ENE,57,3.0,7.0,67,0.00,,CLR,0.00,VWS V13.01,2013-09-17 19:58:00,
2013-09-17 16:03:00,62.4,52.5,30.28,ENE,69,4.0,5.0,70,0.00,,CLR,0.00,VWS V13.01,2013-09-17 20:03:00,
2013-09-17 16:08:00,62.7,52.8,30.27,NE,43,0.0,7.0,70,0.00,,CLR,0.00,VWS V13.01,2013-09-17 20:08:00,
2013-09-17 16:13:00,63.1,52.8,30.27,NE,48,0.0,7.0,69,0.00,,CLR,0.00,VWS V13.01,2013-09-17 20:13:00,
2013-09-17 16:18:00,63.3,53.4,30.27,ENE,73,4.0,7.0,70,0.00,,CLR,0.00,VWS V13.01,2013-09-17 20:18:00,
2013-09-17 16:23:00,63.5,53.5,30.27,NNE,23,0.0,7.0,70,0.00,,CLR,0.00,VWS V13.01,2013-09-17 20:23:00,
2013-09-17 16:28:00,63.8,53.8,30.27,North,355,2.0,7.0,70,0.00,,CLR,0.00,VWS V13.01,2013-09-17 20:28:00,
2013-09-17 16:33:00,64.1,53.7,30.27,ENE,72,3.0,5.0,69,0.00,,CLR,0.00,VWS V13.01,2013-09-17 20:33:00,
2013-09-17 16:38:00,64.0,54.0,30.27,North,9,1.0,5.0,70,0.00,,CLR,0.00,VWS V13.01,2013-09-17 20:38:00,
2013-09-17 16:43:00,63.7,53.7,30.26,ENE,68,2.0,5.0,70,0.00,,CLR,0.00,VWS V13.01,2013-09-17 20:43:00,
2013-09-17 16:48:00,63.2,53.7,30.26,ENE,66,2.0,5.0,71,0.00,,CLR,0.00,VWS V13.01,2013-09-17 20:48:00,
2013-09-17 16:53:00,62.9,53.4,30.26,ENE,61,2.0,5.0,71,0.00,,CLR,0.00,VWS V13.01,2013-09-17 20:53:00,
2013-09-17 16:58:00,62.6,53.5,30.26,NE,49,1.0,5.0,72,0.00,,CLR,0.00,VWS V13.01,2013-09-17 20:58:00,
2013-09-17 17:03:00,62.5,53.4,30.26,WNW,283,0.0,3.0,72,0.00,,CLR,0.00,VWS V13.01,2013-09-17 21:03:00,
2013-09-17 17:08:00,62.5,53.7,30.26,NW,304,0.0,3.0,73,0.00,,CLR,0.00,VWS V13.01,2013-09-17 21:08:00,
2013-09-17 17:13:00,62.6,53.5,30.26,NE,42,1.0,4.0,72,0.00,,CLR,0.00,VWS V13.01,2013-09-17 21:13:00,
2013-09-17 17:18:00,62.6,53.1,30.26,NE,51,1.0,7.0,71,0.00,,CLR,0.00,VWS V13.01,2013-09-17 21:18:00,
2013-09-17 17:23:00,62.5,53.4,30.26,NNW,344,1.0,7.0,72,0.00,,CLR,0.00,VWS V13.01,2013-09-17 21:23:00,
2013-09-17 17:28:00,62.4,53.6,30.26,East,80,1.0,7.0,73,0.00,,CLR,0.00,VWS V13.01,2013-09-17 21:28:00,
2013-09-17 17:33:00,62.3,53.5,30.26,NE,35,0.0,2.0,73,0.00,,CLR,0.00,VWS V13.01,2013-09-17 21:33:00,
2013-09-17 17:39:00,62.3,53.5,30.26,NE,36,0.0,3.0,73,0.00,,CLR,0.00,VWS V13.01,2013-09-17 21:39:00,
2013-09-17 17:44:00,62.2,53.5,30.26,NNE,32,2.0,5.0,73,0.00,,CLR,0.00,VWS V13.01,2013-09-17 21:44:00,
2013-09-17 17:49:00,62.2,53.1,30.25,ENE,61,1.0,6.0,72,0.00,,CLR,0.00,VWS V13.01,2013-09-17 21:49:00,
2013-09-17 17:54:00,62.1,53.3,30.26,ENE,62,0.0,6.0,73,0.00,,CLR,0.00,VWS V13.01,2013-09-17 21:54:00,
2013-09-17 17:59:00,62.1,53.3,30.26,NE,53,0.0,6.0,73,0.00,,CLR,0.00,VWS V13.01,2013-09-17 21:59:00,
2013-09-17 18:04:00,62.1,53.7,30.26,ENE,69,1.0,5.0,74,0.00,,CLR,0.00,VWS V13.01,2013-09-17 22:04:00,
2013-09-17 18:09:00,62.0,53.3,30.26,NE,53,2.0,9.0,73,0.00,,CLR,0.00,VWS V13.01,2013-09-17 22:09:00,
2013-09-17 18:14:00,62.0,53.6,30.26,ENE,63,0.0,9.0,74,0.00,,CLR,0.00,VWS V13.01,2013-09-17 22:14:00,
2013-09-17 18:19:00,61.9,53.5,30.25,NW,314,0.0,9.0,74,0.00,,CLR,0.00,VWS V13.01,2013-09-17 22:19:00,
2013-09-17 18:24:00,61.8,53.8,30.25,NNE,30,1.0,9.0,75,0.00,,CLR,0.00,VWS V13.01,2013-09-17 22:24:00,
2013-09-17 18:29:00,61.6,53.6,30.25,NNE,30,0.0,9.0,75,0.00,,CLR,0.00,VWS V13.01,2013-09-17 22:29:00,
2013-09-17 18:34:00,61.5,53.9,30.25,NNE,30,1.0,2.0,76,0.00,,CLR,0.00,VWS V13.01,2013-09-17 22:34:00,
2013-09-17 18:39:00,61.4,53.4,30.25,NE,36,0.0,4.0,75,0.00,,CLR,0.00,VWS V13.01,2013-09-17 22:39:00,
2013-09-17 18:44:00,61.3,53.7,30.25,NE,34,0.0,4.0,76,0.00,,CLR,0.00,VWS V13.01,2013-09-17 22:44:00,
2013-09-17 18:49:00,61.1,53.5,30.25,NE,35,0.0,4.0,76,0.00,,CLR,0.00,VWS V13.01,2013-09-17 22:49:00,
2013-09-17 18:54:00,60.9,53.3,30.25,NE,36,0.0,4.0,76,0.00,,CLR,0.00,VWS V13.01,2013-09-17 22:54:00,
2013-09-17 18:59:00,60.7,53.5,30.25,NE,36,0.0,4.0,77,0.00,,CLR,0.00,VWS V13.01,2013-09-17 22:59:00,
2013-09-17 19:04:00,60.5,53.6,30.25,NE,36,0.0,0.0,78,0.00,,CLR,0.00,VWS V13.01,2013-09-17 23:04:00,
2013-09-17 19:09:00,60.1,53.2,30.25,NE,36,0.0,1.0,78,0.00,,CLR,0.00,VWS V13.01,2013-09-17 23:09:00,
2013-09-17 19:14:00,59.8,53.3,30.24,NE,36,0.0,2.0,79,0.00,,CLR,0.00,VWS V13.01,2013-09-17 23:14:00,
2013-09-17 19:19:00,59.5,53.0,30.25,NE,36,0.0,4.0,79,0.00,,CLR,0.00,VWS V13.01,2013-09-17 23:19:00,
2013-09-17 19:24:00,59.2,53.0,30.25,NE,36,0.0,4.0,80,0.00,,CLR,0.00,VWS V13.01,2013-09-17 23:24:00,
2013-09-17 19:29:00,59.0,52.8,30.24,NE,36,0.0,4.0,80,0.00,,CLR,0.00,VWS V13.01,2013-09-17 23:29:00,
2013-09-17 19:34:00,58.4,52.6,30.24,NE,36,0.0,0.0,81,0.00,,CLR,0.00,VWS V13.01,2013-09-17 23:34:00,
2013-09-17 19:39:00,57.8,52.3,30.25,NE,36,0.0,0.0,82,0.00,,CLR,0.00,VWS V13.01,2013-09-17 23:39:00,
2013-09-17 19:44:00,57.4,52.0,30.25,NE,36,0.0,0.0,82,0.00,,CLR,0.00,VWS V13.01,2013-09-17 23:44:00,
2013-09-17 19:49:00,57.1,52.0,30.25,NE,36,0.0,0.0,83,0.00,,CLR,0.00,VWS V13.01,2013-09-17 23:49:00,
2013-09-17 19:54:00,56.8,52.0,30.25,NE,36,0.0,0.0,84,0.00,,CLR,0.00,VWS V13.01,2013-09-17 23:54:00,
2013-09-17 19:59:00,56.3,51.5,30.25,NE,36,0.0,0.0,84,0.00,,CLR,0.00,VWS V13.01,2013-09-17 23:59:00,
2013-09-17 20:05:00,56.0,51.6,30.24,NE,36,0.0,0.0,85,0.00,,CLR,0.00,VWS V13.01,2013-09-18 00:05:00,
2013-09-17 20:10:00,55.7,51.6,30.24,NE,36,0.0,0.0,86,0.00,,CLR,0.00,VWS V13.01,2013-09-18 00:10:00,
2013-09-17 20:15:00,55.4,51.3,30.24,NE,36,0.0,0.0,86,0.00,,CLR,0.00,VWS V13.01,2013-09-18 00:15:00,
2013-09-17 20:20:00,55.3,51.5,30.24,NE,36,0.0,0.0,87,0.00,,CLR,0.00,VWS V13.01,2013-09-18 00:20:00,
2013-09-17 20:25:00,55.1,51.3,30.24,NE,36,0.0,0.0,87,0.00,,CLR,0.00,VWS V13.01,2013-09-18 00:25:00,
2013-09-17 20:30:00,54.9,51.4,30.24,NE,36,0.0,0.0,88,0.00,,CLR,0.00,VWS V13.01,2013-09-18 00:30:00,
2013-09-17 20:35:00,54.8,51.3,30.24,NE,36,0.0,0.0,88,0.00,,CLR,0.00,VWS V13.01,2013-09-18 00:35:00,
2013-09-17 20:40:00,54.8,51.3,30.24,NE,36,0.0,0.0,88,0.00,,CLR,0.00,VWS V13.01,2013-09-18 00:40:00,
2013-09-17 20:45:00,54.7,51.2,30.24,NE,36,0.0,0.0,88,0.00,,CLR,0.00,VWS V13.01,2013-09-18 00:45:00,
2013-09-17 20:50:00,54.6,51.1,30.25,NE,36,0.0,0.0,88,0.00,,CLR,0.00,VWS V13.01,2013-09-18 00:50:00,
2013-09-17 20:55:00,54.5,51.0,30.24,NE,36,0.0,0.0,88,0.00,,CLR,0.00,VWS V13.01,2013-09-18 00:55:00,
2013-09-17 21:00:00,54.3,51.1,30.25,NE,36,0.0,0.0,89,0.00,,CLR,0.00,VWS V13.01,2013-09-18 01:00:00,
2013-09-17 21:05:00,54.2,51.0,30.24,NE,36,0.0,0.0,89,0.00,,CLR,0.00,VWS V13.01,2013-09-18 01:05:00,
2013-09-17 21:10:00,53.9,50.7,30.24,NE,36,0.0,0.0,89,0.00,,CLR,0.00,VWS V13.01,2013-09-18 01:10:00,
2013-09-17 21:15:00,53.8,50.9,30.24,NE,36,0.0,0.0,90,0.00,,CLR,0.00,VWS V13.01,2013-09-18 01:15:00,
2013-09-17 21:20:00,53.5,50.6,30.24,NE,36,0.0,0.0,90,0.00,,CLR,0.00,VWS V13.01,2013-09-18 01:20:00,
2013-09-17 21:25:00,53.3,50.5,30.24,NE,36,0.0,0.0,90,0.00,,CLR,0.00,VWS V13.01,2013-09-18 01:25:00,
2013-09-17 21:30:00,53.1,50.5,30.24,NE,36,0.0,0.0,91,0.00,,CLR,0.00,VWS V13.01,2013-09-18 01:30:00,
2013-09-17 21:35:00,52.9,50.3,30.24,NE,36,0.0,0.0,91,0.00,,CLR,0.00,VWS V13.01,2013-09-18 01:35:00,
2013-09-17 21:40:00,52.7,50.2,30.24,NE,36,0.0,0.0,91,0.00,,CLR,0.00,VWS V13.01,2013-09-18 01:40:00,
2013-09-17 21:45:00,52.6,50.3,30.24,NE,36,0.0,0.0,92,0.00,,CLR,0.00,VWS V13.01,2013-09-18 01:45:00,
2013-09-17 21:50:00,52.4,49.8,30.24,NE,36,0.0,0.0,91,0.00,,CLR,0.00,VWS V13.01,2013-09-18 01:50:00,
2013-09-17 21:55:00,52.2,50.0,30.24,NE,36,0.0,0.0,92,0.00,,CLR,0.00,VWS V13.01,2013-09-18 01:55:00,
2013-09-17 22:01:00,52.1,49.8,30.24,NE,36,0.0,0.0,92,0.00,,CLR,0.00,VWS V13.01,2013-09-18 02:01:00,
2013-09-17 22:07:00,51.8,49.5,30.24,NE,36,0.0,0.0,92,0.00,,CLR,0.00,VWS V13.01,2013-09-18 02:07:00,
2013-09-17 22:12:00,51.7,49.5,30.24,NE,36,0.0,1.0,92,0.00,,CLR,0.00,VWS V13.01,2013-09-18 02:12:00,
2013-09-17 22:17:00,51.6,49.4,30.24,NE,36,0.0,1.0,92,0.00,,CLR,0.00,VWS V13.01,2013-09-18 02:17:00,
2013-09-17 22:22:00,51.6,49.4,30.24,NE,36,0.0,1.0,92,0.00,,CLR,0.00,VWS V13.01,2013-09-18 02:22:00,
2013-09-17 22:27:00,51.5,49.3,30.24,NE,36,0.0,1.0,92,0.00,,CLR,0.00,VWS V13.01,2013-09-18 02:27:00,
2013-09-17 22:32:00,51.6,49.4,30.24,NE,36,0.0,0.0,92,0.00,,CLR,0.00,VWS V13.01,2013-09-18 02:32:00,
2013-09-17 22:37:00,51.6,49.4,30.24,NE,36,1.0,1.0,92,0.00,,CLR,0.00,VWS V13.01,2013-09-18 02:37:00,
2013-09-17 22:42:00,51.6,49.4,30.23,NE,40,0.0,1.0,92,0.00,,CLR,0.00,VWS V13.01,2013-09-18 02:42:00,
2013-09-17 22:47:00,51.7,49.5,30.23,NE,42,0.0,1.0,92,0.00,,CLR,0.00,VWS V13.01,2013-09-18 02:47:00,
2013-09-17 22:52:00,51.7,49.5,30.24,NE,42,0.0,1.0,92,0.00,,CLR,0.00,VWS V13.01,2013-09-18 02:52:00,
2013-09-17 22:57:00,51.8,49.3,30.23,NE,44,1.0,2.0,91,0.00,,CLR,0.00,VWS V13.01,2013-09-18 02:57:00,
2013-09-17 23:02:00,51.9,49.4,30.23,NE,44,0.0,0.0,91,0.00,,CLR,0.00,VWS V13.01,2013-09-18 03:02:00,
2013-09-17 23:07:00,51.8,49.3,30.23,NE,44,1.0,1.0,91,0.00,,CLR,0.00,VWS V13.01,2013-09-18 03:07:00,
2013-09-17 23:12:00,51.8,49.3,30.23,NE,44,0.0,1.0,91,0.00,,CLR,0.00,VWS V13.01,2013-09-18 03:12:00,
2013-09-17 23:17:00,51.6,49.1,30.23,NE,44,0.0,1.0,91,0.00,,CLR,0.00,VWS V13.01,2013-09-18 03:17:00,
2013-09-17 23:22:00,51.5,48.7,30.23,NE,44,0.0,1.0,90,0.00,,CLR,0.00,VWS V13.01,2013-09-18 03:22:00,
2013-09-17 23:27:00,51.5,48.7,30.22,NE,46,0.0,2.0,90,0.00,,CLR,0.00,VWS V13.01,2013-09-18 03:27:00,
2013-09-17 23:32:00,51.4,48.6,30.22,NE,46,0.0,1.0,90,0.00,,CLR,0.00,VWS V13.01,2013-09-18 03:32:00,
2013-09-17 23:37:00,51.4,48.3,30.23,NE,46,0.0,1.0,89,0.00,,CLR,0.00,VWS V13.01,2013-09-18 03:37:00,
2013-09-17 23:42:00,51.4,48.0,30.23,NE,46,0.0,1.0,88,0.00,,CLR,0.00,VWS V13.01,2013-09-18 03:42:00,
2013-09-17 23:47:00,51.4,48.0,30.23,NE,46,0.0,1.0,88,0.00,,CLR,0.00,VWS V13.01,2013-09-18 03:47:00,
2013-09-17 23:52:00,51.3,47.6,30.22,NE,46,0.0,1.0,87,0.00,,CLR,0.00,VWS V13.01,2013-09-18 03:52:00,
2013-09-17 23:58:00,51.3,47.6,30.22,NE,46,0.0,1.0,87,0.00,,CLR,0.00,VWS V13.01,2013-09-18 03:58:00,